This is the latest recevied weather packets stored in our database for station/object DG8SF-13. If no packets are shown the sender has not sent any weather packets the latest 10 day(s).
| Time | Temp. | Humidity | Pressure | Rain* | Wind** | Luminosity | Snow |
|---|---|---|---|---|---|---|---|
| 1787485516 | 23.89° C | 39% | 1021.4 hPa | 0 mm | - | - | - |
| 1787485192 | 24.44° C | 38% | 1021.5 hPa | 0 mm | - | - | - |
| 1787484881 | 25.56° C | 39% | 1021.5 hPa | 0 mm | - | - | - |
| 1787484569 | 24.44° C | 38% | 1021.6 hPa | 0 mm | - | - | - |
| 1787484245 | 25° C | 40% | 1021.6 hPa | 0 mm | - | - | - |
| 1787483933 | 24.44° C | 41% | 1021.6 hPa | 0 mm | - | - | - |
| 1787483622 | 25° C | 40% | 1021.7 hPa | 0 mm | - | - | - |
| 1787483310 | 24.44° C | 43% | 1021.7 hPa | 0 mm | - | - | - |
| 1787482985 | 23.33° C | 43% | 1021.7 hPa | 0 mm | - | - | - |
| 1787482674 | 23.33° C | 44% | 1021.8 hPa | 0 mm | - | - | - |
| 1787482363 | 23.89° C | 42% | 1021.8 hPa | 0 mm | - | - | - |
| 1787482049 | 23.89° C | 42% | 1021.8 hPa | 0 mm | - | - | - |
| 1787481738 | 22.78° C | 43% | 1022 hPa | 0 mm | - | - | - |
| 1787481425 | 22.78° C | 45% | 1022.1 hPa | 0 mm | - | - | - |
| 1787481113 | 22.78° C | 44% | 1022.1 hPa | 0 mm | - | - | - |
| 1787480789 | 22.22° C | 46% | 1022.1 hPa | 0 mm | - | - | - |
| 1787480468 | 21.11° C | 47% | 1022.4 hPa | 0 mm | - | - | - |
| 1787480153 | 22.78° C | 46% | 1022.3 hPa | 0 mm | - | - | - |
| 1787479842 | 22.78° C | 45% | 1022.1 hPa | 0 mm | - | - | - |
| 1787479520 | 22.22° C | 48% | 1022.2 hPa | 0 mm | - | - | - |
| 1787479205 | 22.22° C | 47% | 1022.2 hPa | 0 mm | - | - | - |
| 1787478895 | 22.22° C | 48% | 1022.1 hPa | 0 mm | - | - | - |
| 1787478581 | 22.22° C | 48% | 1022.3 hPa | 0 mm | - | - | - |
| 1787478273 | 22.78° C | 46% | 1022.2 hPa | 0 mm | - | - | - |
| 1787477960 | 22.22° C | 46% | 1022.3 hPa | 0 mm | - | - | - |
* Rain latest hour (hover to see other rain measurements)
** Current wind speed in m/s (hover to see current wind gust speed)